This is the latest recevied weather packets stored in our database for station/object HP3ICC-22. If no packets are shown the sender has not sent any weather packets the latest 1 day(s).
| Time | Temp. | Humidity | Pressure | Rain* | Wind** | Luminosity | Snow |
|---|---|---|---|---|---|---|---|
| 1778096679 | 15° C | 75% | 1013 hPa | 0 mm | - | - | - |
| 1778095418 | 15° C | 75% | 1013 hPa | 0.25 mm | - | - | - |
| 1778094278 | 15.56° C | 75% | 1013 hPa | 0.25 mm | - | - | - |
| 1778094218 | 15.56° C | 75% | 1013 hPa | 0.25 mm | - | - | - |
| 1778093077 | 15° C | 75% | 1013 hPa | 0 mm | - | - | - |
| 1778093017 | 15° C | 75% | 1013 hPa | 0 mm | - | - | - |
| 1778088275 | 16.11° C | 72% | 1014 hPa | 0 mm | - | - | - |
| 1778088215 | 16.11° C | 72% | 1014 hPa | 0 mm | - | - | - |
| 1778085874 | 15.56° C | 72% | 1014 hPa | 0 mm | - | - | - |
| 1778085814 | 15.56° C | 72% | 1014 hPa | 0 mm | - | - | - |
| 1778083473 | 15.56° C | 73% | 1014 hPa | 0 mm | - | - | - |
| 1778081072 | 14.44° C | 78% | 1014 hPa | 0 mm | - | - | - |
| 1778081012 | 14.44° C | 78% | 1014 hPa | 0 mm | - | - | - |
| 1778078671 | 13.89° C | 80% | 1014 hPa | 0 mm | - | - | - |
| 1778077470 | 15° C | 80% | 1014 hPa | 0 mm | - | - | - |
| 1778076270 | 14.44° C | 82% | 1014 hPa | 0 mm | - | - | - |
| 1778072668 | 12.22° C | 88% | 1013 hPa | 0 mm | - | - | - |
| 1778070267 | 10° C | 90% | 1013 hPa | 0 mm | - | - | - |
| 1778070207 | 10° C | 90% | 1013 hPa | 0 mm | - | - | - |
| 1778069066 | 11.11° C | 90% | 1013 hPa | 0 mm | - | - | - |
| 1778069006 | 11.11° C | 90% | 1013 hPa | 0 mm | - | - | - |
| 1778066665 | 8.89° C | 86% | 1012 hPa | 0 mm | - | - | - |
| 1778066605 | 8.89° C | 86% | 1012 hPa | 0 mm | - | - | - |
| 1778064204 | 8.89° C | 87% | 1014 hPa | 0 mm | - | - | - |
| 1778063064 | 9.44° C | 79% | 1013 hPa | 0 mm | - | - | - |
* Rain latest hour (hover to see other rain measurements)
** Current wind speed in m/s (hover to see current wind gust speed)